[Date Prev][Date Next][Thread Prev][Thread Next] - [Date Index][Thread Index][Author Index]

2 Line ISS Keps 7-28



ISS
1 25544U 98067A   01209.24105402  .00013204  00000-0  18052-3 0  2688
2 25544  51.6405 241.1877 0011574 308.5470 171.7130 15.57726680153497


----
Via the sarex mailing list at AMSAT.ORG courtesy of AMSAT-NA.
To unsubscribe, send "unsubscribe sarex" to Majordomo@amsat.org



AMSAT Top AMSAT Home